Cosmos 2150 Rocket - Orbit

View from above orbital plane
View from above orbital plane
View from above satellite
View from above satellite

Ground track
Ground track

The orbit data is extracted from the following two-line orbital elements,

1 21419U 91041B   13143.53517700  .00000124  00000-0  53795-4 0  2614
2 21419 074.0397 135.9308 0040244 064.4538 083.0606 14.33345096147566
Epoch (UTC): 23 May 2013 12:50:39
Eccentricity: 0.0040244
inclination: 74.0397°
perigee height: 752 km
apogee height: 809 km
right ascension of ascending node: 135.9308°
argument of perigee: 64.4538°
revolutions per day: 14.33345096
mean anomaly at epoch: 83.0606°
orbit number at epoch: 14756

The dashed part of the orbit path shows where the satellite is in the earth's shadow,  

Developed and maintained by Chris Peat, Heavens-Above GmbH. Please read the updated FAQ before sending e-mail. Imprint. DLR